{"data":{"norad_id":63235,"intl_designator":"2025-052AB","name":"OTP-2","alt_names":[],"object_type":"PAYLOAD","status":"ACTIVE","operator":null,"country":"US","launch_date":"2025-03-15","launch_site_code":"AFWTR","launch_vehicle":null,"mission":null,"orbit_class":"UNKNOWN","rcs_meters":null,"size_class":null,"mass_kg":null,"dimensions":null,"purposes":[],"wikipedia_slug":null,"has_3d_model":false,"image_url":null,"decayed_at":null,"tle_current":{"epoch":"2026-05-24T23:32:19.304736Z","epoch_age_seconds":76716,"freshness":"FRESH","line1":"1 63235U 25052AB  26144.98077899  .00006131  00000+0  25891-3 0  9995","line2":"2 63235  97.3896  37.7586 0004657 234.0442 126.0364 15.23614242 66330","mean_motion":15.23614242,"eccentricity":0.0004657,"inclination_deg":97.3896,"raan_deg":37.7586,"arg_perigee_deg":234.0442,"mean_anomaly_deg":126.0364,"bstar":0.00025891,"rev_number":6633,"period_min":94.512112075676,"perigee_km":491.74895550992,"apogee_km":498.15054851074,"semimajor_km":6873.0867520103,"source":"CELESTRAK","updated_at":"2026-05-25T13:38:03.582336Z"}}}